GW3555 Weather Reports


Display with metric or nautical units.
time (UTC)temp
F
wind
direction
speed
MPH
gust
MPH
rain 1hr
in
rain 24hr
in
rain mn
in
humidity
%
barometer
mb
20260509140128 48 248 2.0 4.0 0.00 0.00 0.00 62 1020.8
20260509135537 47 234 1.0 3.0 0.00 0.00 0.00 64 1020.7
20260509135025 47 234 2.0 3.0 0.00 0.00 0.00 66 1020.7
20260509134603 46 260 1.0 3.0 0.00 0.00 0.00 67 1020.7
20260509134037 46 260 1.0 3.0 0.00 0.00 0.00 67 1020.6
20260509133541 45 255 1.0 3.0 0.00 0.00 0.00 68 1020.7
20260509133149 45 262 1.0 4.0 0.00 0.00 0.00 68 1020.7
20260509132532 44 238 2.0 4.0 0.00 0.00 0.00 68 1020.7
20260509132020 44 248 2.0 4.0 0.00 0.00 0.00 68 1020.6
20260509131631 45 240 2.0 4.0 0.00 0.00 0.00 68 1020.6
20260509131038 45 247 2.0 4.0 0.00 0.00 0.00 66 1020.6
20260509130537 45 236 2.0 4.0 0.00 0.00 0.00 66 1020.6
20260509130133 44 302 1.0 3.0 0.00 0.00 0.00 67 1020.6
20260509125525 44 283 1.0 3.0 0.00 0.00 0.00 67 1020.6
20260509125026 44 283 1.0 4.0 0.00 0.00 0.00 67 1020.6
20260509124650 45 264 2.0 4.0 0.00 0.00 0.00 66 1020.6
20260509124024 45 258 2.0 3.0 0.00 0.00 0.00 66 1020.7
20260509123515 45 281 1.0 2.0 0.00 0.00 0.00 65 1020.8
20260509123108 44 277 1.0 4.0 0.00 0.00 0.00 67 1020.7
20260509122523 44 340 0.0 4.0 0.00 0.00 0.00 66 1020.7
20260509122020 44 304 1.0 4.0 0.00 0.00 0.00 68 1020.7
20260509121645 44 254 1.0 4.0 0.00 0.00 0.00 68 1020.7
20260509121041 44 244 2.0 4.0 0.00 0.00 0.00 68 1020.8
20260509120531 45 252 2.0 4.0 0.00 0.00 0.00 67 1020.8
20260509120200 45 254 2.0 3.0 0.00 0.00 0.00 67 1020.7
20260509115542 45 234 1.0 3.0 0.00 0.00 0.00 66 1020.7
20260509115032 45 235 1.0 4.0 0.00 0.00 0.00 67 1020.9
20260509114610 45 239 2.0 4.0 0.00 0.00 0.00 66 1020.8
20260509114016 45 241 2.0 4.0 0.00 0.00 0.00 67 1020.8
20260509113543 45 259 2.0 4.0 0.00 0.00 0.00 67 1020.9
20260509113155 45 237 2.0 4.0 0.00 0.00 0.00 66 1020.9
20260509112542 45 241 0.0 4.0 0.00 0.00 0.00 66 1020.9
20260509112049 46 251 1.0 3.0 0.00 0.00 0.00 64 1020.7
20260509111618 46 241 1.0 5.0 0.00 0.00 0.00 63 1020.9
20260509111037 46 244 2.0 5.0 0.00 0.00 0.00 63 1020.7
20260509110545 46 231 3.0 5.0 0.00 0.00 0.00 63 1020.8
20260509110145 46 231 3.0 5.0 0.00 0.00 0.00 62 1020.7
20260509105519 47 239 3.0 6.0 0.00 0.00 0.00 62 1020.8
20260509105019 47 236 3.0 5.0 0.00 0.00 0.00 61 1020.9
20260509104626 47 263 2.0 5.0 0.00 0.00 0.00 60 1020.9
20260509104014 47 242 2.0 7.0 0.00 0.00 0.00 60 1020.9
20260509103608 47 261 3.0 7.0 0.00 0.00 0.00 60 1020.8
20260509103102 46 234 3.0 6.0 0.00 0.00 0.00 62 1020.8
20260509102513 46 241 3.0 6.0 0.00 0.00 0.00 63 1020.8
20260509102020 46 239 3.0 6.0 0.00 0.00 0.00 63 1020.7
20260509101644 46 236 3.0 7.0 0.00 0.00 0.00 63 1020.7
20260509101038 47 242 3.0 5.0 0.00 0.00 0.00 63 1020.7
20260509100529 47 229 3.0 5.0 0.00 0.00 0.00 61 1020.6
20260509100211 47 236 3.0 5.0 0.00 0.00 0.00 62 1020.5
20260509095537 47 235 2.0 7.0 0.00 0.00 0.00 61 1020.6
20260509095031 47 225 2.0 7.0 0.00 0.00 0.00 61 1020.6
20260509094628 47 234 2.0 5.0 0.00 0.00 0.00 62 1020.5
20260509094041 47 229 3.0 4.0 0.00 0.00 0.00 62 1020.5
20260509093537 47 248 2.0 4.0 0.00 0.00 0.00 62 1020.5
20260509093132 47 242 2.0 4.0 0.00 0.00 0.00 61 1020.4
20260509092539 47 227 2.0 4.0 0.00 0.00 0.00 61 1020.4
20260509092029 48 236 2.0 4.0 0.00 0.00 0.00 60 1020.4
20260509091608 48 240 2.0 4.0 0.00 0.00 0.00 60 1020.3
20260509091025 48 217 2.0 4.0 0.00 0.00 0.00 60 1020.3
20260509090541 48 226 2.0 5.0 0.00 0.00 0.00 59 1020.1
20260509090144 49 213 3.0 5.0 0.00 0.00 0.00 58 1020.1
20260509085537 49 194 2.0 4.0 0.00 0.00 0.00 58 1020.0
20260509085039 49 221 2.0 5.0 0.00 0.00 0.00 57 1020.0
20260509084609 49 249 2.0 5.0 0.00 0.00 0.00 57 1019.8
20260509084040 49 209 2.0 4.0 0.00 0.00 0.00 58 1019.8
20260509083534 49 225 3.0 5.0 0.00 0.00 0.00 57 1019.8
20260509083109 50 196 3.0 5.0 0.00 0.00 0.00 55 1019.8
20260509082529 50 215 2.0 4.0 0.00 0.00 0.00 54 1019.7
20260509082029 50 226 2.0 4.0 0.00 0.00 0.00 55 1019.7
20260509081649 50 228 2.0 4.0 0.00 0.00 0.00 55 1019.7
20260509081041 50 219 2.0 4.0 0.00 0.00 0.00 55 1019.6
20260509080559 51 257 1.0 4.0 0.00 0.00 0.00 54 1019.5
20260509080154 51 205 2.0 4.0 0.00 0.00 0.00 54 1019.5
20260509075541 51 242 1.0 4.0 0.00 0.00 0.00 54 1019.5
20260509075031 52 230 1.0 5.0 0.00 0.00 0.00 52 1019.4
20260509074611 52 190 2.0 5.0 0.00 0.00 0.00 52 1019.4
20260509074034 52 221 1.0 4.0 0.00 0.00 0.00 52 1019.5
20260509073517 52 228 0.0 4.0 0.00 0.00 0.00 52 1019.3
20260509073142 52 208 2.0 4.0 0.00 0.00 0.00 52 1019.3
20260509072527 52 222 2.0 5.0 0.00 0.00 0.00 51 1019.3
20260509072017 52 242 3.0 5.0 0.00 0.00 0.00 51 1019.3
20260509071626 53 240 2.0 4.0 0.00 0.00 0.00 51 1019.2
20260509071031 53 222 2.0 4.0 0.00 0.00 0.00 50 1019.1
20260509070524 53 230 2.0 5.0 0.00 0.00 0.00 50 1019.1
20260509070219 53 240 1.0 5.0 0.00 0.00 0.00 50 1018.9
20260509065532 53 211 2.0 4.0 0.00 0.00 0.00 49 1018.9
20260509065032 53 213 0.0 3.0 0.00 0.00 0.00 49 1018.9
20260509064632 53 246 2.0 4.0 0.00 0.00 0.00 49 1018.8
20260509064019 53 220 1.0 5.0 0.00 0.00 0.00 49 1018.7
20260509063540 53 254 2.0 5.0 0.00 0.00 0.00 48 1018.8
20260509063133 53 243 1.0 4.0 0.00 0.00 0.00 49 1018.7
20260509062514 53 242 0.0 5.0 0.00 0.00 0.00 48 1018.8
20260509062025 53 234 2.0 5.0 0.00 0.00 0.00 48 1018.8
20260509061616 53 216 2.0 5.0 0.00 0.00 0.00 47 1018.6
20260509061036 54 237 1.0 4.0 0.00 0.00 0.00 47 1018.8
20260509060530 54 221 2.0 10.0 0.00 0.00 0.00 47 1018.6
20260509055548 54 238 2.0 7.0 0.00 0.00 0.00 46 1018.7
20260509055053 54 214 2.0 7.0 0.00 0.00 0.00 46 1018.7
20260509054602 54 233 2.0 5.0 0.00 0.00 0.00 46 1018.6
20260509054037 54 238 2.0 5.0 0.00 0.00 0.00 46 1018.7
20260509053525 54 65 2.0 5.0 0.00 0.00 0.00 46 1018.7
20260509053143 54 226 2.0 5.0 0.00 0.00 0.00 45 1018.6
20260509052522 54 236 2.0 5.0 0.00 0.00 0.00 46 1018.8
20260509052019 54 186 2.0 5.0 0.00 0.00 0.00 46 1018.7
20260509051557 54 312 1.0 5.0 0.00 0.00 0.00 45 1018.7
20260509051040 54 246 2.0 5.0 0.00 0.00 0.00 45 1018.4
20260509050544 54 232 2.0 7.0 0.00 0.00 0.00 45 1018.3
20260509050113 55 238 3.0 7.0 0.00 0.00 0.00 44 1018.3
20260509045522 55 243 3.0 6.0 0.00 0.00 0.00 44 1018.4
20260509045032 55 255 2.0 6.0 0.00 0.00 0.00 43 1018.3
20260509044609 55 251 2.0 6.0 0.00 0.00 0.00 42 1018.2
20260509044032 55 244 2.0 7.0 0.00 0.00 0.00 43 1018.2
20260509043526 55 242 2.0 7.0 0.00 0.00 0.00 42 1018.2
20260509043108 55 232 3.0 8.0 0.00 0.00 0.00 42 1018.0
20260509042536 55 264 2.0 8.0 0.00 0.00 0.00 42 1017.9
20260509042039 55 245 2.0 6.0 0.00 0.00 0.00 42 1017.9
20260509041543 55 238 2.0 6.0 0.00 0.00 0.00 41 1017.9
20260509041016 55 253 2.0 6.0 0.00 0.00 0.00 41 1017.9
20260509040606 55 262 2.0 7.0 0.00 0.00 0.00 41 1017.9
20260509040059 55 210 3.0 7.0 0.00 0.00 0.00 40 1017.8
20260509035524 55 235 2.0 6.0 0.00 0.00 0.00 40 1017.8
20260509035030 56 240 3.0 6.0 0.00 0.00 0.00 40 1017.7
20260509034632 56 232 2.0 7.0 0.00 0.00 0.00 39 1017.7
20260509034031 56 237 1.0 7.0 0.00 0.00 0.00 39 1017.7
20260509033529 56 198 1.0 6.0 0.00 0.00 0.00 39 1017.5
20260509033116 56 240 2.0 5.0 0.00 0.00 0.00 39 1017.4
20260509032545 57 242 2.0 7.0 0.00 0.00 0.00 38 1017.3
20260509032026 57 225 3.0 7.0 0.00 0.00 0.00 37 1017.1
20260509031631 57 244 2.0 4.0 0.00 0.00 0.00 37 1017.0
20260509031016 57 212 2.0 7.0 0.00 0.00 0.00 37 1016.9
20260509030531 57 238 2.0 7.0 0.00 0.00 0.00 37 1016.8
20260509030108 58 193 3.0 7.0 0.00 0.00 0.00 36 1016.7
20260509025536 58 238 3.0 9.0 0.00 0.00 0.00 35 1016.7
20260509025030 58 219 3.0 9.0 0.00 0.00 0.00 35 1016.5
20260509024623 58 249 2.0 6.0 0.00 0.00 0.00 34 1016.5
20260509024017 58 208 2.0 7.0 0.00 0.00 0.00 35 1016.5
20260509023525 58 219 1.0 7.0 0.00 0.00 0.00 35 1016.5
20260509023124 59 286 1.0 7.0 0.00 0.00 0.00 34 1016.3
20260509022520 59 225 2.0 7.0 0.00 0.00 0.00 33 1016.1
20260509022042 60 244 2.0 10.0 0.00 0.00 0.00 32 1016.1
20260509021614 60 213 3.0 10.0 0.00 0.00 0.00 32 1016.1
20260509021039 60 268 2.0 8.0 0.00 0.00 0.00 32 1016.2
20260509020534 60 306 2.0 4.0 0.00 0.00 0.00 32 1016.2
20260509020126 60 232 2.0 8.0 0.00 0.00 0.00 31 1016.2
20260509015531 61 213 2.0 7.0 0.00 0.00 0.00 31 1016.2
20260509015042 61 197 2.0 5.0 0.00 0.00 0.00 31 1016.1
20260509014540 62 226 1.0 5.0 0.00 0.00 0.00 30 1016.1
20260509014040 62 188 2.0 10.0 0.00 0.00 0.00 31 1016.1
20260509013522 63 295 3.0 10.0 0.00 0.00 0.00 30 1015.8
20260509013058 63 166 2.0 10.0 0.00 0.00 0.00 30 1016.0
20260509012532 63 279 2.0 8.0 0.00 0.00 0.00 29 1016.0
20260509012041 64 332 2.0 8.0 0.00 0.00 0.00 29 1015.9
20260509011631 64 208 3.0 10.0 0.00 0.00 0.00 28 1015.8
20260509011020 65 277 1.0 10.0 0.00 0.00 0.00 28 1015.8
20260509010533 65 258 2.0 9.0 0.00 0.00 0.00 28 1015.6
20260509010056 65 337 3.0 8.0 0.00 0.00 0.00 28 1015.6
20260509005534 65 235 3.0 10.0 0.00 0.00 0.00 29 1015.4
20260509005017 65 234 5.0 19.0 0.00 0.00 0.00 28 1015.5
20260509004613 65 194 1.0 19.0 0.00 0.00 0.00 29 1015.4
20260509004039 65 240 2.0 13.0 0.00 0.00 0.00 27 1015.3
20260509003524 66 292 5.0 13.0 0.00 0.00 0.00 26 1015.4
20260509003049 66 193 2.0 6.0 0.00 0.00 0.00 26 1015.5
20260509002544 66 48 2.0 7.0 0.00 0.00 0.00 28 1015.6
20260509002030 66 289 0.0 7.0 0.00 0.00 0.00 28 1015.7
20260509001622 66 194 1.0 7.0 0.00 0.00 0.00 28 1015.5
20260509001041 66 263 1.0 6.0 0.00 0.00 0.00 25 1015.5
20260509000520 67 60 1.0 7.0 0.00 0.00 0.00 26 1015.6
20260509000049 67 290 1.0 6.0 0.00 0.00 0.00 26 1015.5
20260508235522 68 304 2.0 9.0 0.00 0.00 0.00 25 1015.5
20260508235037 68 329 2.0 9.0 0.00 0.00 0.00 25 1015.6
20260508234559 68 234 2.0 9.0 0.00 0.00 0.00 26 1015.6
20260508234018 67 53 3.0 8.0 0.00 0.00 0.00 26 1015.5
20260508233534 67 246 1.0 7.0 0.00 0.00 0.00 27 1015.6
20260508233126 66 271 0.0 8.0 0.00 0.00 0.00 28 1015.6
20260508232533 65 234 2.0 6.0 0.00 0.00 0.00 27 1015.5
20260508232042 65 248 2.0 7.0 0.00 0.00 0.00 27 1015.7
20260508231633 65 241 2.0 5.0 0.00 0.00 0.00 28 1015.8
20260508231044 65 24 2.0 12.0 0.00 0.00 0.00 28 1015.6
20260508230537 66 289 3.0 12.0 0.00 0.00 0.00 27 1015.7
20260508230127 67 261 3.0 10.0 0.00 0.00 0.00 28 1015.6
20260508225525 67 317 2.0 10.0 0.00 0.00 0.00 26 1015.5
20260508225024 67 352 2.0 9.0 0.00 0.00 0.00 26 1015.3
20260508224603 67 175 3.0 9.0 0.00 0.00 0.00 27 1015.4
20260508224030 67 156 3.0 7.0 0.00 0.00 0.00 26 1015.3
20260508223526 68 231 2.0 9.0 0.00 0.00 0.00 25 1015.3
20260508223120 68 292 3.0 9.0 0.00 0.00 0.00 26 1015.2
20260508222521 67 244 2.0 10.0 0.00 0.00 0.00 26 1015.2
20260508222034 67 302 3.0 9.0 0.00 0.00 0.00 27 1015.2
20260508221629 67 267 3.0 11.0 0.00 0.00 0.00 26 1015.2
20260508221041 67 338 4.0 11.0 0.00 0.00 0.00 24 1015.2
20260508220533 67 262 2.0 9.0 0.00 0.00 0.00 26 1015.2
20260508220136 67 217 4.0 12.0 0.00 0.00 0.00 26 1015.1
20260508215531 67 269 3.0 14.0 0.00 0.00 0.00 26 1015.1
20260508215045 67 310 3.0 14.0 0.00 0.00 0.00 26 1015.1
20260508214644 67 279 2.0 9.0 0.00 0.00 0.00 25 1015.1
20260508214045 68 251 3.0 9.0 0.00 0.00 0.00 25 1015.1
20260508213536 68 225 3.0 8.0 0.00 0.00 0.00 25 1015.1
20260508213116 68 252 3.0 9.0 0.00 0.00 0.00 26 1015.0
20260508212535 67 291 2.0 9.0 0.00 0.00 0.00 27 1014.8
20260508212029 67 360 3.0 13.0 0.00 0.00 0.00 26 1014.8
20260508211556 67 159 4.0 13.0 0.00 0.00 0.00 25 1014.8
20260508211041 67 341 2.0 11.0 0.00 0.00 0.00 26 1014.7
20260508210519 67 194 2.0 8.0 0.00 0.00 0.00 25 1015.0
20260508210114 67 74 1.0 8.0 0.00 0.00 0.00 25 1014.9
20260508205527 67 53 1.0 8.0 0.00 0.00 0.00 25 1014.8
20260508205045 67 68 2.0 8.0 0.00 0.00 0.00 25 1014.7
20260508204617 67 238 4.0 10.0 0.00 0.00 0.00 24 1014.6
20260508204041 67 257 4.0 10.0 0.00 0.00 0.00 24 1014.5
20260508203539 67 214 4.0 9.0 0.00 0.00 0.00 25 1014.4
20260508203120 67 304 3.0 7.0 0.00 0.00 0.00 24 1014.3
20260508202539 67 223 2.0 6.0 0.00 0.00 0.00 23 1014.3
20260508202045 67 285 2.0 8.0 0.00 0.00 0.00 23 1014.2
20260508201630 67 190 1.0 6.0 0.00 0.00 0.00 22 1014.1
20260508201018 68 294 2.0 9.0 0.00 0.00 0.00 22 1014.0
20260508200542 68 309 3.0 9.0 0.00 0.00 0.00 23 1014.1
20260508200155 68 26 2.0 9.0 0.00 0.00 0.00 23 1014.0
20260508195545 68 237 2.0 9.0 0.00 0.00 0.00 21 1013.9
20260508195019 68 276 3.0 7.0 0.00 0.00 0.00 20 1013.8
20260508194610 69 165 3.0 10.0 0.00 0.00 0.00 21 1013.9
20260508194028 69 12 2.0 9.0 0.00 0.00 0.00 22 1013.9
20260508193546 70 106 1.0 9.0 0.00 0.00 0.00 22 1013.9
20260508193140 70 239 2.0 9.0 0.00 0.00 0.00 23 1013.8
20260508192534 69 337 3.0 6.0 0.00 0.00 0.00 25 1013.6
20260508192047 70 282 3.0 7.0 0.00 0.00 0.00 24 1013.6
20260508191609 69 49 1.0 7.0 0.00 0.00 0.00 26 1013.6
20260508191032 68 288 3.0 10.0 0.00 0.00 0.00 24 1013.9
20260508190529 68 286 5.0 10.0 0.00 0.00 0.00 23 1013.9
20260508190139 67 257 2.0 8.0 0.00 0.00 0.00 26 1013.8
20260508185524 67 314 2.0 5.0 0.00 0.00 0.00 25 1013.7
20260508185023 68 190 2.0 8.0 0.00 0.00 0.00 25 1013.7
20260508184551 68 87 2.0 8.0 0.00 0.00 0.00 26 1013.8
20260508184019 68 315 1.0 8.0 0.00 0.00 0.00 24 1013.9
20260508183518 68 57 2.0 9.0 0.00 0.00 0.00 24 1013.9
20260508183109 69 306 3.0 9.0 0.00 0.00 0.00 24 1013.8
20260508182533 68 118 2.0 9.0 0.00 0.00 0.00 27 1013.7
20260508182020 68 70 3.0 8.0 0.00 0.00 0.00 25 1013.7
20260508181645 67 237 3.0 8.0 0.00 0.00 0.00 27 1013.9
20260508181031 67 245 2.0 9.0 0.00 0.00 0.00 26 1013.7
20260508180530 68 286 2.0 9.0 0.00 0.00 0.00 27 1013.6
20260508180136 68 235 2.0 9.0 0.00 0.00 0.00 27 1013.7
20260508175526 69 300 2.0 9.0 0.00 0.00 0.00 27 1013.7
20260508175018 68 171 2.0 9.0 0.00 0.00 0.00 27 1013.7
20260508174630 67 213 3.0 9.0 0.00 0.00 0.00 30 1013.7
20260508174033 67 329 3.0 8.0 0.00 0.00 0.00 34 1013.6
20260508173542 66 324 3.0 7.0 0.00 0.00 0.00 31 1013.5
20260508173126 65 261 2.0 8.0 0.00 0.00 0.00 30 1013.5
20260508172542 65 265 3.0 8.0 0.00 0.00 0.00 32 1013.5
20260508172039 64 236 2.0 9.0 0.00 0.00 0.00 31 1013.4
20260508171649 64 288 2.0 10.0 0.00 0.00 0.00 34 1013.3
20260508171034 64 249 2.0 10.0 0.00 0.00 0.00 32 1013.3
20260508170530 64 288 2.0 7.0 0.00 0.00 0.00 34 1013.3
20260508170112 64 234 3.0 7.0 0.00 0.00 0.00 32 1013.3
20260508165537 65 263 2.0 7.0 0.00 0.00 0.00 32 1013.3
20260508165031 65 294 3.0 7.0 0.00 0.00 0.00 32 1013.3
20260508164617 65 346 1.0 9.0 0.00 0.00 0.00 33 1013.3
20260508164018 65 286 2.0 9.0 0.00 0.00 0.00 32 1013.3
20260508163541 64 300 2.0 11.0 0.00 0.00 0.00 38 1013.1
20260508163122 63 261 2.0 7.0 0.00 0.00 0.00 36 1013.1
20260508162531 62 46 2.0 5.0 0.00 0.00 0.00 38 1013.1
20260508162017 62 261 3.0 6.0 0.00 0.00 0.00 41 1013.1
20260508161553 60 88 0.0 4.0 0.00 0.00 0.00 44 1013.2
20260508161019 59 182 1.0 4.0 0.00 0.00 0.00 59 1013.1
20260508160536 59 87 0.0 2.0 0.00 0.00 0.00 62 1013.1
20260508160124 58 218 0.0 2.0 0.00 0.00 0.00 62 1013.3
20260508155536 58 122 0.0 2.0 0.00 0.00 0.00 64 1013.3
20260508155050 57 25 0.0 2.0 0.00 0.00 0.00 67 1013.2
20260508154620 57 46 0.0 1.0 0.00 0.00 0.00 68 1013.1
20260508154100 57 82 0.0 1.0 0.00 0.00 0.00 68 1013.0
20260508153608 56 107 0.0 0.0 0.00 0.00 0.00 69 1013.0
20260508153151 56 82 0.0 0.0 0.00 0.00 0.00 69 1013.1
20260508152526 56 83 0.0 0.0 0.00 0.00 0.00 70 1013.1
20260508152037 55 182 0.0 0.0 0.00 0.00 0.00 71 1013.2
20260508151635 55 182 0.0 0.0 0.00 0.00 0.00 70 1013.0
20260508151021 55 182 0.0 0.0 0.00 0.00 0.00 70 1013.0
20260508150530 54 182 0.0 0.0 0.00 0.00 0.00 70 1013.3
20260508150128 54 182 0.0 0.0 0.00 0.00 0.00 71 1013.1
20260508145532 54 184 0.0 0.0 0.00 0.00 0.00 71 1013.1
20260508145036 53 184 0.0 0.0 0.00 0.00 0.00 71 1013.1
20260508144639 53 176 0.0 0.0 0.00 0.00 0.00 71 1013.3
20260508144033 53 175 0.0 0.0 0.00 0.00 0.00 71 1013.2
20260508143531 53 175 0.0 0.0 0.00 0.00 0.00 71 1013.1
20260508143138 52 177 0.0 0.0 0.00 0.00 0.00 72 1013.2
20260508142532 52 177 0.0 0.0 0.00 0.00 0.00 72 1013.2
20260508142052 52 177 0.0 1.0 0.00 0.00 0.00 72 1013.2
20260508141651 52 178 0.0 1.0 0.00 0.00 0.00 72 1013.1
20260508141023 52 241 0.0 0.0 0.00 0.00 0.00 75 1013.3